Dewpoint
72 72 73 74 73 73 73 73 74 74 74 74 74 73 73 73 73 73 73 73 73 73 73 73 72 72 71 71 71 71 70 70 69 69 68 68 68 69 70 70 70 70 70 70 70 70 70 70 70 70 70 70 70 71 70 70 69 69 69 68 68 67 67 67 67 66 66 67 67 67 67 67 67 68 66 66 66 65 65 65 65 63 63 63 64
71 73 73 74 73 73 73 74 74 74 74 74 74 73 73 73 73 73 73 73 73 73 73 73 72 72 72 71 70 70 70 70 70 69 69 69 69 69 69 69 69 69 70 70 70 70 70 70 69 69 70 69 69 70 70 69 69 69 68 68 68 68 68 68 67 68 68 68 68 66 66 66 66 67 66 65 65 66 65 64 65 63 63 64 64
72 73 74 74 73 73 73 74 74 74 74 74 74 73 73 73 73 73 73 73 73 73 73 73 72 72 72 71 71 70 70 70 70 69 69 69 69 69 69 69 69 70 70 70 70 70 69 69 68 68 68 68 69 69 69 69 68 68 68 68 68 68 69 68 69 69 69 67 66 67 67 67 66 66 66 65 65 65 64 64 64 64 62 64 64
72 73 74 74 74 73 73 74 74 74 74 74 74 73 73 73 73 73 74 74 73 73 73 73 73 73 72 72 71 71 70 70 70 69 69 69 68 69 69 68 69 69 69 69 69 69 69 68 68 68 68 68 69 69 69 69 69 69 68 68 68 69 69 69 69 69 68 68 67 67 67 65 64 65 65 65 65 64 64 64 64 64 64 64 64
72 73 73 74 74 74 72 73 74 74 74 74 74 73 73 73 73 74 73 74 74 73 74 73 73 72 72 72 71 71 70 70 70 70 70 70 70 69 68 68 68 69 69 69 69 69 68 67 68 67 67 68 68 68 68 69 69 68 68 68 69 69 69 69 68 68 68 67 67 66 64 64 65 65 66 65 65 65 64 64 65 64 64 64 64
72 73 73 74 74 74 74 73 73 74 74 74 73 73 73 74 73 73 73 73 73 73 73 73 73 72 72 72 72 71 71 70 70 70 71 70 71 69 68 67 69 69 69 69 69 68 68 67 67 67 67 67 68 68 68 69 69 69 68 68 68 68 68 68 68 67 67 67 66 65 64 64 64 64 66 66 65 65 64 64 64 64 64 64 64
72 72 73 73 74 74 74 74 73 74 74 74 73 73 73 73 73 73 73 73 73 73 73 73 73 72 72 72 72 71 71 70 70 70 70 70 70 70 68 68 68 68 68 68 68 68 68 67 67 67 67 67 68 68 68 69 68 68 68 67 67 68 68 68 67 67 67 65 64 64 64 64 65 63 65 64 65 64 64 64 64 64 64 64 63
72 72 72 73 73 74 74 74 73 73 74 74 74 73 73 73 73 73 73 73 73 73 73 73 73 72 72 72 71 72 71 71 70 71 70 70 71 70 69 68 68 68 68 67 68 68 68 67 67 67 68 68 68 68 68 68 68 68 68 67 67 68 68 67 67 67 67 64 64 64 64 63 63 63 64 65 65 65 65 65 64 64 63 63 63
70 71 72 72 73 74 74 74 73 74 72 72 73 73 73 73 73 73 73 73 73 73 73 73 73 72 72 72 72 72 71 71 71 70 70 69 68 69 69 68 68 68 68 68 68 68 68 67 67 67 68 68 68 68 68 69 69 68 68 68 67 67 67 67 67 67 65 65 64 64 64 64 64 65 65 65 66 66 65 65 64 64 64 63 62
70 71 72 72 73 73 74 74 73 73 72 72 72 73 73 73 73 73 73 73 73 73 73 73 73 72 72 72 72 71 71 71 71 70 69 69 69 69 69 69 68 68 68 68 68 67 67 67 67 68 69 69 68 68 68 68 68 67 67 67 67 67 67 67 67 66 64 64 64 65 67 67 64 64 65 65 65 64 63 63 63 62 62 62 62
70 71 72 73 73 73 73 73 73 74 72 72 71 71 72 72 73 73 73 73 73 73 73 73 73 72 72 72 72 71 71 72 71 70 69 70 69 70 70 69 68 68 70 68 68 67 67 67 68 68 69 69 68 68 68 68 67 66 66 66 66 67 66 65 64 63 63 64 65 66 66 67 64 65 65 65 64 64 64 64 63 63 62 62 62
70 71 71 71 72 73 73 73 73 73 73 72 71 69 70 70 71 71 72 73 73 73 73 73 73 72 72 72 72 72 71 72 72 70 70 70 70 70 69 69 68 69 70 68 68 67 68 69 69 69 68 68 68 68 68 67 67 66 67 67 67 66 66 64 62 63 63 64 66 65 64 64 64 64 66 65 65 64 63 63 63 63 63 62 62
69 70 72 72 73 73 73 73 73 73 73 73 71 70 69 68 69 69 71 72 73 73 73 73 73 73 72 72 72 72 72 71 71 71 70 69 69 70 69 69 68 69 70 70 68 68 68 68 68 68 68 68 68 67 67 66 66 67 67 67 67 67 66 65 63 63 63 63 64 64 63 65 66 65 65 65 64 63 64 64 63 63 63 62 62
69 70 71 72 72 72 73 73 73 73 73 73 71 71 70 70 69 70 71 72 72 73 73 73 73 73 72 72 72 72 72 72 71 70 70 69 70 70 69 68 68 68 70 70 69 68 68 69 69 68 68 68 68 67 67 66 66 67 67 67 67 67 65 65 64 63 64 64 66 64 64 66 65 66 65 64 63 63 63 63 63 63 62 62 62
69 70 71 71 71 71 73 72 72 73 73 73 72 72 71 71 69 69 70 71 72 72 72 73 73 72 72 72 72 72 72 71 70 70 70 70 69 69 69 68 68 68 70 70 68 69 69 69 69 68 69 68 68 67 67 66 66 66 67 67 67 66 65 63 62 63 64 65 65 64 64 65 67 65 65 64 64 63 63 63 62 62 62 62 61
70 70 70 69 69 70 71 72 72 72 72 72 72 72 72 71 70 69 70 71 71 71 72 72 72 72 72 72 72 72 71 71 71 70 70 70 69 69 69 69 68 69 69 69 69 69 69 69 69 69 69 68 68 67 67 66 65 65 66 67 67 65 65 64 63 63 64 64 65 65 64 66 67 65 65 64 64 63 62 62 62 62 61 61 61
69 69 68 68 68 69 70 70 71 72 72 72 72 72 72 71 70 70 70 71 71 71 72 72 72 72 72 72 72 72 71 71 71 70 70 69 69 69 69 69 69 69 69 69 69 70 70 70 69 69 68 68 68 67 66 66 65 66 67 67 67 66 65 64 62 63 64 65 64 64 65 65 66 66 64 64 63 62 62 62 62 62 61 61 61
69 68 68 68 68 68 68 69 69 70 70 71 71 72 72 71 71 70 70 71 71 71 72 72 71 71 72 72 72 70 72 72 71 71 71 70 70 70 69 68 69 70 70 69 69 70 69 69 69 69 68 68 67 67 66 66 67 67 67 67 66 67 65 65 63 63 64 66 64 66 66 67 67 64 63 63 63 62 62 62 61 61 61 60 61
68 68 68 67 67 67 68 68 69 70 70 70 70 71 71 71 71 71 70 71 71 72 71 71 71 71 71 71 70 70 71 71 71 71 71 71 70 70 70 69 69 70 70 69 69 69 69 68 69 69 68 67 67 66 66 66 66 67 66 66 66 66 67 65 63 63 65 65 64 65 64 67 67 64 64 63 62 62 62 62 61 61 61 60 61
68 67 67 67 67 66 65 66 67 68 69 70 71 71 71 72 71 71 71 71 70 70 71 70 70 71 70 70 71 70 70 70 70 71 71 71 70 70 69 68 68 69 69 69 69 69 69 68 69 69 68 67 67 67 66 66 67 66 66 66 66 65 66 62 62 63 64 64 65 64 66 66 65 63 64 63 62 62 62 61 61 61 61 61 60
67 67 67 66 65 65 64 64 65 67 69 69 69 70 71 71 71 71 71 70 69 69 70 70 70 70 70 70 71 69 68 69 68 70 70 70 70 69 69 68 68 69 69 69 69 69 69 69 68 69 68 67 67 66 66 66 67 66 66 66 66 64 63 62 63 64 63 65 66 64 66 65 64 64 64 63 62 62 62 61 62 61 61 61 61
66 66 66 65 64 63 64 63 64 65 67 68 69 70 71 71 69 69 70 69 69 69 69 68 69 68 69 70 69 70 67 66 68 69 68 69 69 69 69 68 69 69 69 69 68 68 68 69 69 68 67 67 68 64 65 67 67 67 67 66 62 62 62 63 63 63 64 65 65 65 66 64 64 64 64 62 62 62 62 61 61 61 60 61 60
65 65 65 64 62 62 63 64 64 63 65 67 69 70 70 70 69 69 69 70 69 67 68 68 67 67 69 70 69 68 67 68 67 67 69 69 70 69 68 68 68 68 69 69 69 68 68 68 69 68 68 67 62 62 62 62 64 66 65 62 62 62 62 62 62 63 63 64 64 65 66 65 65 64 63 63 63 62 61 61 62 61 60 59 60
65 65 65 64 62 62 62 63 64 63 64 66 68 69 69 69 70 70 69 68 69 69 67 67 66 67 67 68 67 67 67 67 69 69 69 69 69 68 68 68 68 67 69 69 69 68 68 68 68 68 67 64 62 62 61 61 61 61 62 62 62 61 62 62 62 62 63 65 63 65 66 65 65 64 63 63 63 62 61 61 61 61 60 59 59
65 65 65 63 61 61 62 63 64 64 64 65 67 68 68 69 69 70 70 70 69 67 66 65 66 66 66 67 66 67 66 66 67 66 66 66 66 66 68 67 68 67 68 67 67 67 67 66 66 65 64 64 62 61 61 61 62 62 61 62 62 61 62 62 62 62 63 64 64 66 66 66 65 64 64 63 63 62 61 62 61 61 61 61 60
62 63 63 61 61 63 62 62 64 64 64 64 66 67 68 67 68 69 69 69 69 69 67 66 66 66 66 67 66 66 67 67 66 65 65 65 66 66 67 67 67 67 68 67 66 66 66 66 66 65 63 64 63 62 63 62 61 61 61 61 62 62 61 62 62 62 62 63 65 65 67 66 66 65 64 63 63 63 62 62 61 61 61 61 60
61 61 59 59 60 63 63 63 63 62 64 66 66 66 66 67 67 68 68 67 68 68 67 67 65 65 65 66 65 65 67 68 66 65 64 65 64 65 67 68 67 66 67 67 66 66 66 65 65 64 63 63 63 62 61 61 60 61 61 61 61 61 61 61 61 62 62 63 64 66 67 67 67 65 64 63 63 63 63 62 61 62 60 61 61
57 55 56 58 60 61 62 63 62 63 63 64 64 65 65 66 66 68 66 69 67 66 66 66 65 64 65 66 66 66 67 67 66 65 65 65 65 65 67 68 67 67 66 67 66 65 65 64 63 62 63 63 62 62 61 61 61 60 61 61 61 61 61 61 61 61 62 63 63 65 67 67 67 66 65 64 64 64 63 62 62 62 60 61 61
54 53 54 57 56 58 60 62 64 64 63 63 64 65 65 65 65 65 66 68 64 65 66 66 66 65 64 65 66 66 66 66 66 66 65 64 65 65 66 67 67 67 65 65 66 64 63 63 62 61 60 60 60 60 60 60 61 61 61 61 61 61 61 60 61 61 61 62 63 64 66 67 67 67 66 65 64 64 64 63 63 62 61 60 60
53 52 53 54 53 55 60 62 63 63 62 63 63 63 63 63 64 64 65 67 65 65 66 65 66 66 65 66 67 67 67 66 65 65 65 64 64 65 65 67 66 67 65 65 64 64 63 62 61 61 60 59 59 59 61 60 60 61 61 61 61 61 61 60 60 61 61 62 63 64 65 67 67 67 67 66 65 64 64 64 63 62 62 61 61
51 51 52 51 54 54 57 60 62 64 61 62 61 62 62 62 64 66 65 64 64 65 65 64 65 65 66 67 67 68 67 66 65 65 65 65 64 64 65 66 67 66 65 64 64 64 63 62 62 61 60 59 59 59 60 59 59 60 62 61 61 61 61 61 61 60 61 62 62 63 63 66 67 67 67 66 66 65 64 64 64 63 62 62 61
50 50 50 51 53 54 57 59 60 61 61 62 63 61 61 63 64 65 64 65 65 64 64 64 65 65 65 66 67 67 66 65 66 66 65 65 64 65 65 64 66 67 66 65 64 64 63 63 62 62 61 60 60 59 60 59 59 59 60 61 61 61 61 61 61 61 60 61 62 63 63 64 66 67 66 66 66 66 65 64 64 63 62 62 62
50 50 50 52 52 53 56 56 58 59 60 60 60 58 58 60 63 63 63 64 63 63 64 64 64 64 65 65 65 67 65 64 65 65 66 64 64 64 64 64 65 66 66 65 65 64 64 63 62 63 62 61 62 62 61 60 59 60 60 60 61 61 61 61 61 61 61 61 62 62 63 63 64 66 66 66 66 66 66 66 64 63 63 62 62
49 49 50 51 53 53 55 54 56 58 58 58 57 56 56 57 58 59 63 60 60 62 63 62 64 64 65 66 66 66 64 65 65 64 65 65 64 64 64 64 64 64 64 65 65 65 64 64 64 63 64 63 63 62 62 61 60 60 60 60 61 62 61 60 61 61 61 61 61 62 62 63 63 64 65 66 66 66 66 66 65 64 63 63 63
50 49 49 50 53 52 53 54 56 56 58 57 55 55 54 52 52 55 57 57 58 58 58 59 61 64 65 65 66 67 66 66 65 65 65 65 65 65 63 64 64 64 64 64 64 65 65 64 64 64 64 64 64 63 62 61 61 60 60 61 61 61 61 60 60 60 60 61 61 62 62 63 63 63 64 64 66 66 65 66 66 66 65 64 63
48 48 49 50 50 51 54 54 55 55 55 54 52 52 52 52 55 59 56 56 57 56 56 58 60 60 61 61 64 65 66 66 66 66 65 65 65 65 65 65 64 65 64 64 64 64 64 64 64 64 63 63 63 63 63 62 62 61 61 61 61 61 61 60 60 60 60 61 60 62 62 62 62 62 64 63 64 64 65 65 66 66 66 65 64
48 48 49 49 49 52 54 53 53 54 52 51 50 50 50 50 51 52 53 54 54 55 56 58 58 59 59 60 61 64 64 66 66 66 65 65 64 63 63 63 65 64 65 65 64 64 63 64 63 64 64 63 64 63 63 62 61 60 60 60 61 61 61 61 60 60 60 60 61 61 61 62 62 64 63 63 63 63 64 65 65 65 65 66 66
48 49 49 48 49 51 50 51 52 52 50 50 50 51 52 53 53 55 58 55 55 56 57 58 58 58 58 59 60 62 63 63 64 64 64 65 64 63 63 64 64 64 63 65 65 64 64 64 63 64 64 64 64 64 64 63 61 60 60 59 60 61 61 61 61 61 60 60 61 61 61 62 62 62 62 63 62 62 62 63 65 65 66 64 64
49 48 48 49 49 48 50 53 50 49 50 51 52 51 51 52 52 53 54 54 54 54 55 56 56 57 57 58 59 59 61 60 62 63 63 64 64 63 63 64 64 64 64 64 64 64 64 63 63 63 64 65 65 65 64 63 61 60 60 60 59 60 61 61 61 61 60 60 60 61 60 61 61 61 62 62 62 62 62 62 63 64 65 65 65
49 48 49 48 48 48 49 50 49 50 51 52 51 51 51 52 52 52 53 53 53 55 53 53 54 56 57 57 57 57 58 59 58 60 61 61 61 62 63 62 61 62 62 62 63 63 62 63 63 64 63 64 65 65 64 62 62 61 60 61 60 59 59 60 61 60 60 60 60 61 61 61 61 61 61 61 61 61 62 62 62 62 64 64 65
48 48 47 47 47 47 49 47 48 51 51 50 49 49 48 48 48 49 50 49 52 51 52 52 54 55 54 54 54 54 55 58 58 57 57 60 58 59 60 61 60 62 63 63 63 63 64 64 64 63 62 61 62 65 65 63 61 59 60 60 59 60 59 60 60 60 60 60 60 60 61 62 61 61 61 61 61 61 61 61 61 62 63 64 65
47 47 46 46 46 48 47 47 49 50 50 50 50 48 48 48 48 48 48 49 49 48 49 52 53 54 53 52 53 52 53 56 58 57 56 56 56 57 57 59 61 62 63 63 63 64 63 64 63 62 63 61 61 63 63 62 59 57 57 57 58 59 60 59 58 59 59 59 60 60 61 61 61 61 62 61 61 60 60 61 61 61 61 63 64
47 47 46 46 47 48 47 48 49 49 50 51 50 48 48 49 48 48 50 49 49 51 50 54 53 51 51 52 53 51 53 54 56 58 56 55 55 55 56 56 58 60 60 60 61 61 62 62 63 62 61 62 61 63 62 62 59 59 59 57 56 55 57 58 58 58 58 59 59 59 59 60 60 61 62 61 61 61 60 60 61 61 62 62 63
48 46 46 45 47 49 47 48 48 49 50 52 52 49 49 49 49 50 49 47 47 54 50 50 50 50 50 51 52 51 52 53 54 55 54 54 54 55 55 56 56 57 58 58 58 59 60 62 62 63 63 61 61 61 63 62 61 59 55 56 55 55 54 56 57 58 58 57 58 58 59 59 59 60 62 61 61 61 61 60 60 61 62 62 62
47 46 45 45 47 47 47 47 48 49 50 54 51 51 51 51 50 49 49 47 48 48 48 49 51 53 50 49 50 51 52 52 53 55 56 53 54 54 55 55 55 55 56 55 56 56 58 59 61 62 62 61 60 62 62 63 62 62 59 56 54 54 54 55 55 56 57 56 56 57 58 59 59 59 60 61 62 62 61 60 61 61 61 62 62
47 46 46 46 46 46 47 48 48 49 50 52 50 50 50 50 49 46 43 44 44 44 44 48 48 48 47 48 49 51 52 52 53 54 56 55 54 54 54 55 55 55 55 55 55 55 56 56 58 60 62 63 62 60 61 62 62 62 62 61 58 55 56 57 56 54 57 58 57 56 56 57 59 59 59 59 60 61 62 62 62 61 61 61 61
46 47 46 45 45 46 47 48 48 49 50 52 50 50 48 49 49 47 44 43 42 44 45 46 49 48 48 48 49 51 51 53 53 53 54 54 53 53 54 54 54 55 56 54 54 54 55 55 56 56 58 60 61 59 59 60 62 62 62 61 61 60 61 58 55 55 54 56 58 59 59 57 57 57 57 58 59 60 61 62 62 61 61 61 61
46 47 46 46 44 45 47 48 49 51 51 51 50 49 47 49 48 47 47 44 43 44 46 46 48 50 48 49 50 50 51 52 52 53 54 54 52 52 53 53 53 54 54 53 53 53 54 54 55 55 56 57 59 59 58 59 58 58 61 60 60 60 61 61 60 58 56 55 55 58 59 59 60 59 59 58 59 59 60 60 60 61 61 61 61
47 46 46 46 45 46 48 49 49 51 51 51 50 48 49 48 48 47 47 47 45 47 49 51 49 50 49 48 49 49 50 51 52 53 53 53 54 52 52 52 52 53 54 52 52 52 52 52 53 53 54 55 56 57 57 56 57 57 58 58 60 60 60 60 60 59 57 55 55 56 56 58 59 59 60 60 59 60 60 60 59 59 61 62 61
47 48 46 47 46 46 48 49 49 50 51 50 50 48 47 49 47 47 46 46 48 47 47 48 47 46 48 48 48 49 50 51 51 51 51 51 51 52 51 51 52 53 53 51 51 51 51 51 52 52 53 53 54 55 54 55 55 56 56 57 56 57 58 58 59 59 59 58 56 57 57 56 56 58 59 60 60 60 59 59 60 59 59 61 61
47 47 47 47 47 47 47 48 49 50 50 50 49 47 47 47 47 47 47 47 47 46 46 46 47 46 47 47 48 49 50 50 51 51 51 51 52 53 51 51 52 54 52 50 50 50 51 51 51 51 51 51 52 52 52 53 54 53 54 55 54 55 55 55 56 57 57 56 56 56 56 56 56 57 59 60 60 59 59 60 59 59 59 60 60